Weather History for Emmonak, AK

Change the Weather History Date:

Monday, November 18, 2013

  Actual Average Record
Temperature  
Mean Temperature 20 °F -  
Max Temperature 23 °F 24 °F 37 °F (2003)
Min Temperature 17 °F 16 °F 0 °F (2008)
Degree Days  
Heating Degree Days 45    
Moisture  
Dew Point 15 °F    
Average Humidity 82    
Maximum Humidity 86    
Minimum Humidity 74    
Precipitation  
Precipitation 0.02 in - - ()
Sea Level Pressure  
Sea Level Pressure 30.35 in    
Wind  
Wind Speed 6 mph (South)    
Max Wind Speed 13 mph    
Max Gust Speed -    
Visibility 8 miles    
Events      
Averages and records for this station are not official NWS values.
T = Trace of Precipitation, MM = Missing Value Source: NWS Daily Summary

Daily Weather History Graph

Daily Weather History Graph

Search for Another Location

Airport:

Trip Planner

Search our weather history database for the weather conditions in past years. The results will help you decide how hot, cold, wet, or windy it might be!

Date:

Astronomy

Nov. 18, 2013 Rise Set
Actual Time 10:25 AM AKST 5:00 PM AKST
Civil Twilight 9:28 AM AKST 5:57 PM AKST
Nautical Twilight 8:29 AM AKST 6:55 PM AKST
Astronomical Twilight 7:35 AM AKST 7:49 PM AKST
Moon 6:04 PM AKST (11/18) 11:32 AM AKST (11/18)
Length of Visible Light 8h 29m
Length of Day
6h 34m
Full, 98% of the Moon is Illuminated
Nov 18
Full
Nov 25
Last Quarter
Dec 2
New
Dec 9
First Quarter
Dec 17
Full

Hourly Weather History & Observations

Time (AKST) Temp. Windchill Dew Point Humidity Pressure Visibility Wind Dir Wind Speed Gust Speed Precip Events Conditions
12:16 AM 19.4 °F - 14.0 °F 80% 30.51 in 10.0 mi Calm Calm - N/A   Overcast
12:36 AM 19.4 °F - 14.0 °F 80% 30.51 in 10.0 mi Calm Calm - N/A   Overcast
12:56 AM 19.4 °F - 14.0 °F 80% 30.51 in 10.0 mi Calm Calm - N/A   Overcast
1:16 AM 19.4 °F 11.5 °F 14.0 °F 80% 30.50 in 10.0 mi SSE 5.8 mph - N/A   Overcast
1:36 AM 19.4 °F 11.5 °F 12.2 °F 74% 30.49 in 10.0 mi South 5.8 mph - N/A   Overcast
1:56 AM 19.4 °F 11.5 °F 12.2 °F 74% 30.50 in 10.0 mi South 5.8 mph - N/A   Overcast
2:16 AM 19.4 °F 10.4 °F 14.0 °F 80% 30.49 in 10.0 mi South 6.9 mph - N/A   Overcast
2:36 AM 19.4 °F 10.4 °F 12.2 °F 74% 30.49 in 10.0 mi SSE 6.9 mph - N/A   Overcast
2:56 AM 19.4 °F 9.5 °F 12.2 °F 74% 30.48 in 10.0 mi SSE 8.1 mph - N/A   Overcast
3:16 AM 19.4 °F 7.9 °F 12.2 °F 74% 30.47 in 10.0 mi SSE 10.4 mph - N/A   Overcast
3:36 AM 19.4 °F 8.6 °F 12.2 °F 74% 30.46 in 10.0 mi SSE 9.2 mph - N/A   Overcast
3:56 AM 19.4 °F 7.9 °F 12.2 °F 74% 30.46 in 9.0 mi SSE 10.4 mph - N/A   Overcast
4:16 AM 19.4 °F 7.9 °F 12.2 °F 74% 30.46 in 10.0 mi SSE 10.4 mph - N/A   Overcast
4:36 AM 19.4 °F 7.9 °F 14.0 °F 80% 30.45 in 5.0 mi SSE 10.4 mph - N/A   Overcast
4:56 AM 19.4 °F 6.6 °F 14.0 °F 80% 30.44 in 9.0 mi SSE 12.7 mph - N/A   Overcast
5:16 AM 19.4 °F 7.9 °F 14.0 °F 80% 30.44 in 10.0 mi SSE 10.4 mph - N/A   Overcast
5:36 AM 19.4 °F 7.2 °F 14.0 °F 80% 30.43 in 10.0 mi SSE 11.5 mph - N/A   Overcast
5:56 AM 19.4 °F 6.6 °F 14.0 °F 80% 30.42 in 10.0 mi SSE 12.7 mph - N/A   Overcast
6:16 AM 19.4 °F 7.9 °F 14.0 °F 80% 30.42 in 10.0 mi SSE 10.4 mph - N/A   Overcast
6:36 AM 19.4 °F 7.2 °F 14.0 °F 80% 30.41 in 10.0 mi SSE 11.5 mph - N/A   Overcast
6:56 AM 19.4 °F 7.9 °F 14.0 °F 80% 30.41 in 10.0 mi SSE 10.4 mph - N/A   Overcast
7:16 AM 19.4 °F 10.4 °F 15.8 °F 86% 30.41 in 10.0 mi South 6.9 mph - N/A   Overcast
7:36 AM 19.4 °F 14.3 °F 15.8 °F 86% 30.41 in 10.0 mi SSE 3.5 mph - N/A   Overcast
7:56 AM 19.4 °F - 15.8 °F 86% 30.41 in 10.0 mi Calm Calm - N/A   Overcast
8:16 AM 19.4 °F 11.5 °F 15.8 °F 86% 30.40 in 7.0 mi NNE 5.8 mph - N/A   Overcast
8:36 AM 19.4 °F 10.4 °F 15.8 °F 86% 30.41 in 10.0 mi NNE 6.9 mph - N/A   Overcast
8:56 AM 17.6 °F 8.2 °F 14.0 °F 86% 30.40 in 10.0 mi NNE 6.9 mph - N/A   Overcast
9:16 AM 17.6 °F 7.3 °F 14.0 °F 86% 30.40 in 10.0 mi NE 8.1 mph - N/A   Overcast
9:36 AM 17.6 °F 7.3 °F 12.2 °F 79% 30.40 in 10.0 mi ENE 8.1 mph - N/A   Overcast
9:56 AM 17.6 °F 10.7 °F 14.0 °F 86% 30.40 in 10.0 mi East 4.6 mph - N/A   Overcast
10:16 AM 17.6 °F 10.7 °F 14.0 °F 86% 30.40 in 10.0 mi East 4.6 mph - N/A   Overcast
10:36 AM 17.6 °F 8.2 °F 12.2 °F 79% 30.39 in 10.0 mi East 6.9 mph - N/A   Overcast
10:56 AM 19.4 °F 12.8 °F 12.2 °F 74% 30.39 in 10.0 mi SE 4.6 mph - N/A   Overcast
11:16 AM 19.4 °F 12.8 °F 14.0 °F 80% 30.38 in 10.0 mi SE 4.6 mph - N/A   Overcast
11:36 AM 19.4 °F 11.5 °F 14.0 °F 80% 30.38 in 10.0 mi SE 5.8 mph - N/A   Overcast
11:56 AM 19.4 °F 14.3 °F 15.8 °F 86% 30.38 in 10.0 mi South 3.5 mph - N/A   Overcast
12:16 PM 19.4 °F 10.4 °F 15.8 °F 86% 30.37 in 10.0 mi South 6.9 mph - N/A   Overcast
12:36 PM 19.4 °F 9.5 °F 15.8 °F 86% 30.36 in 10.0 mi South 8.1 mph - N/A   Overcast
12:56 PM 19.4 °F 8.6 °F 15.8 °F 86% 30.36 in 10.0 mi South 9.2 mph - N/A   Overcast
1:16 PM 21.2 °F 10.9 °F 15.8 °F 80% 30.36 in 10.0 mi South 9.2 mph - N/A   Overcast
1:36 PM 21.2 °F 10.1 °F 15.8 °F 80% 30.35 in 5.0 mi SSW 10.4 mph - N/A   Overcast
1:56 PM 21.2 °F 10.1 °F 15.8 °F 80% 30.34 in 3.0 mi SSW 10.4 mph - N/A   Overcast
2:16 PM 21.2 °F 10.9 °F 15.8 °F 80% 30.33 in 8.0 mi SSW 9.2 mph - N/A   Overcast
2:36 PM 23.0 °F 12.4 °F 17.6 °F 80% 30.33 in 10.0 mi SSW 10.4 mph - N/A   Mostly Cloudy
2:56 PM 21.2 °F 9.5 °F 17.6 °F 86% 30.32 in 10.0 mi SSW 11.5 mph - N/A   Scattered Clouds
3:16 PM 23.0 °F 11.7 °F 17.6 °F 80% 30.31 in 10.0 mi SSW 11.5 mph - N/A   Mostly Cloudy
3:36 PM 21.2 °F 10.1 °F 17.6 °F 86% 30.30 in 10.0 mi South 10.4 mph - N/A   Overcast
3:56 PM 21.2 °F 9.5 °F 17.6 °F 86% 30.29 in 10.0 mi SSW 11.5 mph - N/A   Overcast
4:16 PM 21.2 °F 11.7 °F 17.6 °F 86% 30.28 in 10.0 mi SSW 8.1 mph - N/A   Overcast
4:36 PM 21.2 °F 11.7 °F 17.6 °F 86% 30.28 in 10.0 mi South 8.1 mph - N/A   Overcast
4:56 PM 21.2 °F 11.7 °F 17.6 °F 86% 30.27 in 10.0 mi SSW 8.1 mph - N/A   Overcast
5:16 PM 21.2 °F 12.6 °F 17.6 °F 86% 30.27 in 7.0 mi SSW 6.9 mph - N/A   Overcast
5:36 PM 21.2 °F 12.6 °F 17.6 °F 86% 30.26 in 10.0 mi SSW 6.9 mph - N/A   Overcast
5:56 PM 21.2 °F 11.7 °F 17.6 °F 86% 30.26 in 9.0 mi SW 8.1 mph - N/A   Mostly Cloudy
6:16 PM 23.0 °F 15.8 °F 17.6 °F 80% 30.25 in 2.5 mi West 5.8 mph - N/A   Overcast
6:36 PM 23.0 °F 14.7 °F 19.4 °F 86% 30.25 in 1.2 mi West 6.9 mph - 0.01 in   Overcast
6:56 PM 23.0 °F 14.7 °F 19.4 °F 86% 30.24 in 3.0 mi West 6.9 mph - 0.01 in   Overcast
7:16 PM 23.0 °F 14.7 °F 17.6 °F 80% 30.24 in 4.0 mi West 6.9 mph - N/A   Overcast
7:36 PM 23.0 °F 13.9 °F 17.6 °F 80% 30.24 in 3.0 mi West 8.1 mph - N/A   Overcast
7:56 PM 23.0 °F 14.7 °F 17.6 °F 80% 30.23 in 4.0 mi West 6.9 mph - N/A   Overcast
8:16 PM 23.0 °F 15.8 °F 17.6 °F 80% 30.23 in 5.0 mi West 5.8 mph - N/A   Overcast
8:36 PM 23.0 °F 15.8 °F 17.6 °F 80% 30.22 in 5.0 mi West 5.8 mph - N/A   Overcast
8:56 PM 23.0 °F 14.7 °F 19.4 °F 86% 30.22 in 3.0 mi WNW 6.9 mph - N/A   Overcast
9:16 PM 23.0 °F 17.0 °F 19.4 °F 86% 30.21 in 3.0 mi NW 4.6 mph - 0.01 in   Overcast
9:36 PM 21.2 °F 13.6 °F 17.6 °F 86% 30.21 in 4.0 mi NNW 5.8 mph - 0.01 in   Overcast
9:56 PM 21.2 °F 14.9 °F 17.6 °F 86% 30.21 in 7.0 mi North 4.6 mph - 0.01 in   Overcast
10:16 PM 21.2 °F 13.6 °F 17.6 °F 86% 30.21 in 9.0 mi NW 5.8 mph - N/A   Overcast
10:36 PM 21.2 °F 13.6 °F 15.8 °F 80% 30.20 in 9.0 mi NE 5.8 mph - N/A   Overcast
10:56 PM 19.4 °F 14.3 °F 15.8 °F 86% 30.20 in 10.0 mi NNE 3.5 mph - N/A   Overcast
11:16 PM 19.4 °F - 15.8 °F 86% 30.19 in 10.0 mi Calm Calm - N/A   Overcast
11:36 PM 19.4 °F - 15.8 °F 86% 30.19 in 10.0 mi Calm Calm - N/A   Overcast
11:56 PM 19.4 °F - 15.8 °F 86% 30.19 in 10.0 mi Calm Calm - N/A   Overcast